Charleston, SC

4:13 AM EDT on July 23, 2017 (GMT -0400)
Charleston Executive

Weather History for KJZI - November, 2013

Change the Weather History Date:

Tuesday, November 12, 2013

  Actual Average (KCHS) Record (KCHS)
Temperature  
Mean Temperature 58 °F -  
Max Temperature 73 °F 68 °F 84 °F (1989)
Min Temperature 44 °F 46 °F 27 °F (1943)
Degree Days  
Heating Degree Days 6    
Growing Degree Days 8 (Base 50)    
Moisture  
Dew Point 45 °F    
Average Humidity 62    
Maximum Humidity 93    
Minimum Humidity 31    
Precipitation  
Precipitation 0.00 in - - ()
Sea Level Pressure  
Sea Level Pressure 30.12 in    
Wind  
Wind Speed 4 mph (NNW)    
Max Wind Speed 29 mph    
Max Gust Speed 39 mph    
Visibility 10 miles    
Events      
Averages and records for this station are not official NWS values.
T = Trace of Precipitation, MM = Missing Value Source: NWS Daily Summary

Daily Weather History Graph

Daily Weather History Graph

Search for Another Location

Airport or City:

Trip Planner

Search our weather history database for the weather conditions in past years. The results will help you decide how hot, cold, wet, or windy it might be!

Date:

Astronomy

Nov. 12, 2013 Rise Set
Actual Time 6:47 AM EST 5:20 PM EST
Civil Twilight 6:21 AM EST 5:46 PM EST
Nautical Twilight 5:51 AM EST 6:16 PM EST
Astronomical Twilight 5:22 AM EST 6:45 PM EST
Moon 2:19 PM EST (11/12) 1:51 AM EST (11/12)
Length of Visible Light 11h 25m
Length of Day
10h 33m
Waxing Gibbous, 76% of the Moon is Illuminated
Nov 12
Waxing Gibbous
Nov 17
Full
Nov 25
Last Quarter
Dec 2
New
Dec 9
First Quarter

Hourly Weather History & Observations

Time (EST) Temp. Windchill Dew Point Humidity Pressure Visibility Wind Dir Wind Speed Gust Speed Precip Events Conditions
12:15 AM 53.6 °F - 48.2 °F 82% 30.16 in 10.0 mi North 5.8 mph - 0.00 in   Partly Cloudy
12:35 AM 53.6 °F - 48.2 °F 82% 30.16 in 10.0 mi Calm Calm - 0.00 in   Scattered Clouds
12:55 AM 53.6 °F - 48.2 °F 82% 30.16 in 10.0 mi Calm Calm - 0.00 in   Partly Cloudy
1:15 AM 53.6 °F - 48.2 °F 82% 30.15 in 10.0 mi Calm Calm - 0.00 in   Partly Cloudy
1:35 AM 51.8 °F - 46.4 °F 82% 30.15 in 10.0 mi Calm Calm - 0.00 in   Partly Cloudy
1:55 AM 51.8 °F - 48.2 °F 88% 30.14 in 10.0 mi Calm Calm - 0.00 in   Mostly Cloudy
2:15 AM 53.6 °F - 46.4 °F 77% 30.14 in 10.0 mi Calm Calm - 0.00 in   Scattered Clouds
2:35 AM 51.8 °F - 46.4 °F 82% 30.14 in 10.0 mi Calm Calm - 0.00 in   Scattered Clouds
2:55 AM 53.6 °F - 46.4 °F 77% 30.14 in 10.0 mi Calm Calm - 0.00 in   Partly Cloudy
3:15 AM 51.8 °F - 46.4 °F 82% 30.13 in 10.0 mi Calm Calm - 0.00 in   Clear
3:35 AM 51.8 °F - 46.4 °F 82% 30.13 in 10.0 mi Calm Calm - 0.00 in   Clear
3:55 AM 51.8 °F - 46.4 °F 82% 30.12 in 10.0 mi Calm Calm - 0.00 in   Clear
4:15 AM 51.8 °F - 46.4 °F 82% 30.12 in 10.0 mi Calm Calm - 0.00 in   Clear
4:35 AM 48.2 °F - 44.6 °F 87% 30.12 in 8.0 mi Calm Calm - 0.00 in   Clear
4:55 AM 50.0 °F - 46.4 °F 87% 30.12 in 10.0 mi Calm Calm - 0.00 in   Mostly Cloudy
5:15 AM 48.2 °F - 46.4 °F 93% 30.13 in 10.0 mi Calm Calm - 0.00 in   Scattered Clouds
5:35 AM 48.2 °F - 44.6 °F 87% 30.13 in 10.0 mi Calm Calm - 0.00 in   Clear
5:55 AM 48.2 °F - 44.6 °F 87% 30.12 in 10.0 mi Calm Calm - 0.00 in   Clear
6:15 AM 48.2 °F - 44.6 °F 87% 30.13 in 10.0 mi Calm Calm - 0.00 in   Clear
6:35 AM 46.4 °F - 44.6 °F 93% 30.13 in 10.0 mi Calm Calm - 0.00 in   Clear
6:55 AM 48.2 °F - 44.6 °F 87% 30.13 in 10.0 mi Calm Calm - 0.00 in   Clear
7:15 AM 46.4 °F - 44.6 °F 93% 30.13 in 7.0 mi Calm Calm - 0.00 in   Clear
7:35 AM 48.2 °F - 46.4 °F 93% 30.13 in 7.0 mi Calm Calm - 0.00 in   Clear
7:55 AM 51.8 °F - 46.4 °F 82% 30.13 in 8.0 mi Calm Calm - 0.00 in   Clear
8:15 AM 55.4 °F - 48.2 °F 77% 30.14 in 10.0 mi Calm Calm - 0.00 in   Clear
8:35 AM 57.2 °F - 48.2 °F 72% 30.14 in 10.0 mi Calm Calm - 0.00 in   Clear
8:55 AM 60.8 °F - 50.0 °F 68% 30.14 in 10.0 mi Calm Calm - 0.00 in   Clear
9:15 AM 62.6 °F - 51.8 °F 68% 30.14 in 10.0 mi Calm Calm - 0.00 in   Clear
9:35 AM 62.6 °F - 51.8 °F 68% 30.14 in 10.0 mi West 8.1 mph - 0.00 in   Clear
9:55 AM 64.4 °F - 51.8 °F 64% 30.13 in 10.0 mi WNW 6.9 mph - 0.00 in   Clear
10:15 AM 64.4 °F - 48.2 °F 56% 30.12 in 10.0 mi West 8.1 mph - 0.00 in   Clear
10:35 AM 66.2 °F - 48.2 °F 52% 30.12 in 10.0 mi West 9.2 mph - 0.00 in   Clear
10:55 AM 68.0 °F - 48.2 °F 49% 30.11 in 10.0 mi WNW 8.1 mph - 0.00 in   Clear
11:15 AM 69.8 °F - 48.2 °F 46% 30.10 in 10.0 mi West 3.5 mph - 0.00 in   Clear
11:35 AM 71.6 °F - 46.4 °F 41% 30.09 in 10.0 mi West 8.1 mph - 0.00 in   Clear
11:55 AM 71.6 °F - 44.6 °F 38% 30.08 in 10.0 mi WNW 10.4 mph - 0.00 in   Clear
12:15 PM 71.6 °F - 44.6 °F 38% 30.07 in 10.0 mi WNW 6.9 mph - 0.00 in   Clear
12:35 PM 73.4 °F - 44.6 °F 36% 30.05 in 10.0 mi West 9.2 mph - 0.00 in   Clear
12:55 PM 71.6 °F - 44.6 °F 38% 30.04 in 10.0 mi WNW 8.1 mph - 0.00 in   Clear
1:15 PM 73.4 °F - 44.6 °F 36% 30.04 in 10.0 mi West 8.1 mph - 0.00 in   Clear
1:35 PM 73.4 °F - 41.0 °F 31% 30.03 in 10.0 mi NW 6.9 mph - 0.00 in   Clear
1:55 PM 73.4 °F - 42.8 °F 33% 30.03 in 10.0 mi NW 9.2 mph - 0.00 in   Clear
2:15 PM 73.4 °F - 44.6 °F 36% 30.02 in 10.0 mi WNW 6.9 mph - 0.00 in   Clear
2:35 PM 73.4 °F - 42.8 °F 33% 30.02 in 10.0 mi WNW 9.2 mph - 0.00 in   Clear
2:55 PM 71.6 °F - 42.8 °F 35% 30.02 in 10.0 mi NW 6.9 mph - 0.00 in   Clear
3:15 PM 71.6 °F - 44.6 °F 38% 30.02 in 10.0 mi West 5.8 mph - 0.00 in   Clear
3:35 PM 73.4 °F - 44.6 °F 36% 30.02 in 10.0 mi Calm Calm - 0.00 in   Clear
3:55 PM 71.6 °F - 46.4 °F 41% 30.02 in 10.0 mi Calm Calm - 0.00 in   Clear
4:15 PM 71.6 °F - 46.4 °F 41% 30.02 in 10.0 mi Calm Calm - 0.00 in   Clear
4:35 PM 69.8 °F - 46.4 °F 43% 30.02 in 10.0 mi NW 4.6 mph - 0.00 in   Clear
4:55 PM 68.0 °F - 48.2 °F 49% 30.03 in 10.0 mi Calm Calm - 0.00 in   Clear
5:15 PM 64.4 °F - 51.8 °F 64% 30.03 in 10.0 mi Calm Calm - 0.00 in   Clear
5:35 PM 60.8 °F - 53.6 °F 77% 30.04 in 10.0 mi Calm Calm - 0.00 in   Clear
5:55 PM 60.8 °F - 50.0 °F 68% 30.05 in 10.0 mi Calm Calm - 0.00 in   Clear
6:15 PM 57.2 °F - 51.8 °F 82% 30.06 in 10.0 mi Calm Calm - 0.00 in   Clear
6:35 PM 57.2 °F - 51.8 °F 82% 30.06 in 10.0 mi Calm Calm - 0.00 in   Clear
6:55 PM 59.0 °F - 48.2 °F 67% 30.07 in 10.0 mi NNE 5.8 mph - 0.00 in   Clear
7:15 PM 62.6 °F - 42.8 °F 48% 30.08 in 10.0 mi NNE 9.2 mph - 0.00 in   Clear
7:35 PM 60.8 °F - 41.0 °F 48% 30.09 in 10.0 mi NNE 9.2 mph - 0.00 in   Clear
7:55 PM 60.8 °F - 39.2 °F 45% 30.10 in 10.0 mi NNE 8.1 mph - 0.00 in   Clear
8:15 PM 60.8 °F - 39.2 °F 45% 30.11 in 10.0 mi NNE 9.2 mph - 0.00 in   Scattered Clouds
8:35 PM 60.8 °F - 39.2 °F 45% 30.13 in 10.0 mi NNE 12.7 mph 21.9 mph 0.00 in   Overcast
8:55 PM 60.8 °F - 39.2 °F 45% 30.15 in 10.0 mi NNE 17.3 mph 20.7 mph 0.00 in   Overcast
9:15 PM 60.8 °F - 39.2 °F 45% 30.17 in 10.0 mi North 16.1 mph 23.0 mph 0.00 in   Overcast
9:35 PM 55.4 °F - 35.6 °F 47% 30.20 in 10.0 mi North 23.0 mph 32.2 mph 0.00 in   Overcast
9:55 PM 53.6 °F - 33.8 °F 47% 30.23 in 10.0 mi North 24.2 mph 34.5 mph 0.00 in   Overcast
10:15 PM 51.8 °F - 32.0 °F 47% 30.25 in 10.0 mi North 23.0 mph 33.4 mph 0.00 in   Overcast
10:35 PM 48.2 °F - 32.0 °F 54% 30.27 in 10.0 mi North 28.8 mph 39.1 mph 0.00 in   Overcast
10:55 PM 46.4 °F 37.7 °F 30.2 °F 53% 30.29 in 10.0 mi North 26.5 mph 39.1 mph 0.00 in   Overcast
11:15 PM 46.4 °F 38.1 °F 30.2 °F 53% 30.31 in 10.0 mi North 24.2 mph 39.1 mph 0.00 in   Overcast
11:35 PM 44.6 °F 36.1 °F 32.0 °F 61% 30.32 in 10.0 mi North 21.9 mph 32.2 mph 0.00 in   Overcast
11:55 PM 44.6 °F 35.7 °F 32.0 °F 61% 30.32 in 10.0 mi North 24.2 mph 31.1 mph 0.00 in   Overcast